TimeCDT,TemperatureF,Dew PointF,Humidity,Sea Level PressureIn,VisibilityMPH,Wind Direction,Wind SpeedMPH,Gust SpeedMPH,PrecipitationIn,Events,Conditions,WindDirDegrees,DateUTC
12:54 AM,57.0,50.0,77,30.22,10.0,SE,5.8,-,N/A,,Clear,130,2011-10-07 05:54:00
1:54 AM,60.1,52.0,75,30.23,10.0,SE,8.1,-,N/A,,Clear,140,2011-10-07 06:54:00
2:54 AM,59.0,51.1,75,30.23,10.0,SSE,4.6,-,N/A,,Clear,150,2011-10-07 07:54:00
3:54 AM,51.1,48.0,89,30.24,10.0,Calm,Calm,-,N/A,,Clear,0,2011-10-07 08:54:00
4:54 AM,51.1,48.0,89,30.26,10.0,Calm,Calm,-,N/A,,Clear,0,2011-10-07 09:54:00
5:54 AM,52.0,48.0,86,30.28,10.0,Calm,Calm,-,N/A,,Clear,0,2011-10-07 10:54:00
6:54 AM,51.8,48.2,88,30.30,10.0,East,3.5,-,N/A,,Clear,90,2011-10-07 11:54:00
7:54 AM,57.0,52.0,83,30.32,10.0,SE,5.8,-,N/A,,Clear,130,2011-10-07 12:54:00
8:54 AM,66.0,55.0,68,30.32,10.0,South,5.8,-,N/A,,Clear,170,2011-10-07 13:54:00
9:54 AM,73.0,55.9,55,30.32,10.0,South,8.1,-,N/A,,Clear,190,2011-10-07 14:54:00
10:54 AM,79.0,55.0,44,30.32,10.0,SSW,16.1,-,N/A,,Clear,210,2011-10-07 15:54:00
11:54 AM,81.0,55.0,41,30.30,10.0,SSW,16.1,-,N/A,,Clear,200,2011-10-07 16:54:00
12:54 PM,82.9,55.0,38,30.27,10.0,South,16.1,19.6,N/A,,Clear,180,2011-10-07 17:54:00
1:54 PM,82.9,53.1,36,30.25,10.0,South,15.0,20.7,N/A,,Clear,190,2011-10-07 18:54:00
2:54 PM,84.0,53.1,34,30.24,10.0,South,11.5,19.6,N/A,,Clear,180,2011-10-07 19:54:00
3:54 PM,84.2,51.8,33,30.24,10.0,South,13.8,21.9,N/A,,Clear,180,2011-10-07 20:54:00
4:54 PM,82.9,53.1,36,30.23,10.0,SSE,12.7,-,N/A,,Clear,160,2011-10-07 21:54:00
5:54 PM,80.1,52.0,38,30.23,10.0,SSE,11.5,-,N/A,,Clear,160,2011-10-07 22:54:00
6:54 PM,75.0,53.1,46,30.25,10.0,SSE,6.9,-,N/A,,Clear,160,2011-10-07 23:54:00
7:54 PM,70.0,53.1,55,30.26,10.0,SSE,9.2,-,N/A,,Clear,150,2011-10-08 00:54:00
9:54 PM,66.9,53.1,61,30.26,10.0,SSE,8.1,-,N/A,,Clear,160,2011-10-08 02:54:00
10:54 PM,64.0,53.1,67,30.27,10.0,South,5.8,-,N/A,,Clear,170,2011-10-08 03:54:00
11:54 PM,64.0,54.0,70,30.26,10.0,South,5.8,-,N/A,,Clear,180,2011-10-08 04:54:00